Temp
14 14 14 14 14 14 13 13 13 14 13 12 11 12 12 12 12 11 11 12 12 13 11 9 9 9 12 13 11 12 12 13 14 15 14 14 15 15 16 16 15 14 15 22 28 28 30 33 34 34 36 35 36 36 36 37 38 39 38 38 38 39 37
14 14 12 14 12 12 14 12 13 13 12 12 12 10 11 10 10 10 10 10 9 10 9 9 8 9 9 12 9 9 9 10 11 11 12 12 12 13 13 18 15 14 15 14 24 25 30 30 33 31 35 34 34 35 36 35 36 37 38 38 38 38 38
13 12 13 12 11 11 11 12 11 11 11 9 8 8 8 9 9 8 8 8 8 9 9 7 7 7 8 8 7 7 8 9 8 9 9 9 11 11 14 15 16 13 10 12 15 23 25 27 29 30 31 34 35 35 36 35 35 35 35 37 38 38 38
12 12 11 10 10 10 10 9 9 9 9 8 8 7 7 7 7 7 7 5 5 6 5 5 4 5 6 6 5 5 6 8 8 8 8 8 9 10 12 13 15 15 11 11 11 18 21 25 26 28 31 32 34 34 34 34 32 33 32 34 36 37 37
12 10 9 8 8 8 8 8 8 7 7 7 8 7 6 5 4 4 4 4 4 5 4 4 3 4 5 5 4 4 5 6 6 7 7 7 9 10 10 12 13 13 14 11 10 13 19 22 24 27 29 30 30 31 33 33 30 31 31 31 32 35 36
9 8 7 8 7 7 7 7 7 6 6 6 6 6 5 4 3 4 3 3 4 4 4 3 3 4 4 4 3 4 5 5 5 6 6 6 7 8 9 9 10 11 10 10 10 12 13 18 19 22 25 28 30 29 29 28 29 30 30 30 30 31 32
7 7 7 6 6 5 5 5 5 4 5 5 4 3 2 2 2 3 3 3 4 4 4 4 4 4 4 4 4 4 4 4 4 5 5 5 6 7 7 7 8 8 8 8 8 10 14 15 17 20 20 26 29 29 29 28 26 26 29 29 28 28 31
4 5 6 5 5 5 5 3 3 4 3 2 1 0 0 1 0 1 2 2 3 4 4 4 4 4 5 5 5 5 5 5 4 6 5 7 7 7 6 6 7 8 8 7 7 8 9 13 14 18 21 25 26 25 26 28 27 24 26 27 28 28 28
4 3 2 3 3 2 3 1 0 1 0 -1 -1 -1 -1 -1 -0 0 1 1 2 3 4 5 5 5 5 6 7 8 8 8 8 6 5 7 7 7 7 7 8 8 8 8 8 8 10 12 14 16 18 19 21 21 22 27 29 25 26 27 27 28 29
2 1 -0 -1 -1 -0 -1 -1 -1 1 3 6 -0 2 3 3 3 3 2 2 2 4 5 5 6 6 8 8 8 9 9 10 11 11 9 8 8 8 7 7 7 7 8 8 7 7 8 9 10 14 17 18 22 25 27 26 27 25 26 26 25 27 29
-1 -2 -1 -2 -2 -3 -3 -3 -2 3 6 2 6 6 4 3 4 5 6 6 6 6 7 8 9 9 9 9 10 9 11 11 12 13 13 13 13 12 9 7 6 6 8 8 7 9 9 9 10 13 18 20 21 23 24 24 26 26 24 23 21 20 25
-3 -2 -2 -3 -3 -4 -4 -4 0 4 4 1 5 7 4 5 5 5 6 7 7 7 7 7 8 8 9 9 9 9 9 10 11 12 13 13 14 14 16 15 11 9 9 8 8 8 9 9 9 12 15 16 18 20 23 24 24 24 23 21 21 21 21
-3 -4 -3 -4 -5 -5 -5 -5 1 5 5 -1 3 6 6 6 6 6 6 6 7 7 7 8 8 8 9 9 11 11 9 8 8 11 12 12 13 13 15 16 17 17 14 13 11 9 9 10 11 11 12 15 17 20 19 22 23 23 23 23 22 23 24
-4 -4 -5 -5 -6 -6 -5 -5 -1 6 2 3 11 8 6 5 6 6 6 6 6 7 7 8 8 8 8 10 10 10 10 9 9 9 9 9 9 10 11 13 16 15 16 16 13 12 10 12 13 12 14 16 17 16 15 18 20 23 22 22 22 25 26
-5 -5 -5 -6 -6 -6 -6 -6 2 6 4 6 8 8 6 6 5 5 6 6 7 7 7 8 8 9 9 9 10 11 11 9 9 9 9 8 8 8 9 10 10 11 11 12 13 13 13 13 15 15 16 16 18 17 17 18 19 21 22 24 25 25 26
-4 -6 -6 -5 -6 -7 -7 -6 3 5 1 6 4 6 4 4 3 4 5 6 8 8 9 10 9 9 9 9 10 12 16 15 12 10 8 8 8 9 9 10 13 16 16 14 13 13 13 14 15 18 16 17 18 18 19 20 21 21 21 21 21 19 22
-6 -5 -6 -6 -6 -7 -7 -6 -1 3 1 3 7 5 3 3 4 5 5 6 8 10 11 11 11 11 11 11 11 13 17 18 16 12 10 8 7 8 9 9 11 16 18 17 19 19 20 20 20 21 22 23 23 21 20 20 18 17 19 19 18 18 20
-6 -6 -5 -6 -7 -6 -7 -6 -1 2 0 2 8 6 3 4 4 4 6 7 9 10 11 12 13 13 12 12 12 16 18 19 17 12 12 10 8 7 7 8 10 11 13 18 19 20 21 21 21 23 23 23 24 24 23 18 15 17 20 18 19 17 20
-6 -6 -6 -6 -6 -4 -6 -6 -2 4 2 2 6 2 4 5 5 5 5 7 8 10 11 12 14 15 15 14 16 18 18 17 16 14 13 12 10 8 7 9 11 10 10 11 11 13 14 15 18 18 18 19 21 23 23 21 19 20 19 18 20 20 20
-7 -8 -8 -6 -6 -6 -5 -6 -4 -2 5 1 7 6 4 6 4 4 5 7 9 9 12 13 14 16 18 20 20 20 21 21 21 17 15 13 11 10 9 12 12 13 12 12 12 13 14 14 15 16 17 18 18 19 20 20 21 21 21 20 21 21 20
-9 -9 -9 -6 -6 -5 -4 -4 -3 -2 5 -0 2 5 6 5 5 6 7 7 9 11 10 11 12 14 17 19 19 20 21 21 21 21 18 14 12 12 14 16 14 14 15 13 13 14 14 15 16 17 18 18 19 20 20 21 21 22 22 22 21 20 20
-9 -9 -8 -6 -5 -4 -3 -1 -1 -1 3 8 5 -1 3 5 6 8 8 8 9 9 9 10 12 13 16 17 19 20 20 21 21 21 19 19 19 19 20 17 17 16 16 15 15 15 15 15 16 17 18 18 19 20 21 21 22 23 23 24 24 23 21
-10 -9 -8 -6 -4 -2 -2 -2 -0 2 1 5 6 5 2 7 6 11 10 8 7 8 8 10 10 12 15 16 18 21 21 21 22 21 19 21 22 23 22 20 18 17 17 16 15 15 14 15 16 16 17 19 19 21 22 23 23 23 23 23 24 25 25
-8 -8 -7 -7 -5 -3 -1 -0 1 2 2 1 6 6 5 7 10 12 10 9 8 9 8 8 9 11 15 17 18 20 20 21 20 19 21 22 21 20 20 20 20 18 17 17 16 15 15 16 17 17 18 19 21 22 21 22 23 23 23 23 23 24 24
-8 -8 -7 -6 -6 -4 -2 -0 -0 0 1 2 3 6 7 8 11 11 10 8 8 8 7 9 12 13 15 16 17 17 18 18 19 20 19 20 20 20 20 20 20 19 19 17 16 16 16 17 19 19 20 21 21 22 23 22 22 23 23 23 23 23 24
-8 -7 -7 -7 -5 -4 -3 -2 -1 -1 -0 2 2 3 5 8 9 8 9 9 7 7 8 9 10 10 10 10 12 13 15 16 17 18 19 20 20 19 20 20 21 20 19 18 17 17 17 19 21 21 22 21 22 22 22 22 22 22 22 21 21 21 21
-7 -7 -7 -7 -6 -4 -4 -4 -3 -2 -1 0 0 0 2 5 6 8 8 7 5 5 4 5 6 7 8 8 9 10 12 13 14 16 18 19 19 19 19 19 20 20 20 19 19 18 19 21 22 23 21 20 20 20 21 23 22 21 20 20 21 20 18
-8 -8 -8 -7 -5 -5 -5 -6 -4 -3 -3 -2 -2 -0 3 5 5 5 6 4 3 3 3 3 5 5 5 4 4 6 7 7 9 11 13 15 16 17 18 18 20 20 20 21 21 21 21 20 19 18 18 19 19 19 20 22 21 20 19 20 20 18 17
-8 -7 -6 -5 -5 -7 -8 -7 -6 -4 -1 -2 1 0 2 2 2 4 5 4 3 2 2 2 2 2 1 1 1 1 2 3 4 5 7 9 12 14 17 18 19 18 19 20 20 18 17 17 17 17 17 18 18 19 20 21 21 21 19 19 19 17 17
-6 -4 -3 -5 -5 -5 -7 -7 -4 -3 -6 -7 -2 -1 2 1 0 4 5 3 2 1 -1 -2 -2 -1 -1 -2 -1 -2 -2 -1 0 1 3 5 9 11 15 17 17 18 19 19 19 18 18 17 17 16 16 17 17 18 19 20 20 20 20 17 17 17 17
-1 -3 -2 -4 -6 -4 -1 -2 -2 -2 -4 -3 -2 3 3 1 7 4 5 3 -1 -3 -4 -4 -4 -4 -3 -3 -3 -3 -4 -3 -2 -1 -0 2 5 8 13 16 17 17 17 18 18 18 18 17 17 16 17 16 16 17 17 19 20 21 20 18 18 17 18
-5 -3 -1 -1 -3 -5 -6 -4 -3 -3 -3 -6 -3 -2 4 3 4 3 4 1 -0 -5 -6 -6 -6 -5 -5 -5 -5 -5 -4 -4 -4 -3 -2 -1 1 4 8 13 16 18 17 17 17 17 17 17 17 17 16 16 16 16 17 17 18 18 19 19 19 19 19
-1 -3 -5 -1 -1 -0 -3 -5 -6 -6 -3 -3 -1 -1 2 2 2 1 1 -0 -5 -7 -7 -7 -7 -7 -6 -6 -6 -6 -6 -5 -5 -5 -4 -2 -1 1 5 8 12 16 17 17 17 17 17 17 17 16 16 16 16 15 15 16 16 17 19 19 18 18 18
-5 -5 -7 -6 -4 -2 -1 -1 -2 -2 -2 -2 1 4 2 -2 -4 -1 0 -3 -7 -8 -9 -8 -8 -8 -7 -7 -6 -6 -6 -6 -6 -5 -5 -4 -2 0 3 7 11 15 17 18 17 17 17 17 17 17 16 15 16 16 16 16 16 16 17 18 18 18 18
-13 -9 -9 -12 -11 -9 -9 -8 -7 -6 -4 -2 1 1 -1 -3 -8 -10 -9 -8 -8 -8 -8 -9 -9 -9 -8 -7 -7 -7 -7 -7 -7 -6 -6 -6 -4 -2 1 4 9 14 17 17 18 17 17 17 16 16 16 16 15 15 14 15 15 16 17 17 18 18 18
-14 -13 -12 -11 -10 -10 -10 -10 -8 -7 -5 0 1 1 -5 -11 -12 -12 -11 -11 -10 -9 -9 -8 -8 -8 -8 -8 -7 -7 -7 -7 -7 -7 -7 -6 -5 -4 -2 0 3 5 10 16 17 17 18 17 17 17 17 17 16 15 15 16 15 16 17 18 19 19 19
MSLP
1031.70 1031.38 1030.98 1030.78 1030.42 1030.06 1029.86 1029.42 1029.22 1028.94 1028.70 1028.42 1028.06 1027.66 1027.30 1027.02 1026.78 1026.46 1026.06 1025.74 1025.42 1025.26 1025.06 1024.82 1024.62 1024.34 1024.10 1023.82 1023.62 1023.22 1022.98 1022.74 1022.46 1022.22 1021.94 1021.58 1021.22 1020.74 1020.14 1019.66 1019.10 1018.14 1016.62 1015.66 1015.82 1014.98 1014.34 1014.18 1014.10 1013.42 1013.34 1012.94 1012.66 1012.82 1012.70 1012.74 1012.82 1012.82 1012.58 1012.38 1012.26 1012.30 1012.42
1031.50 1031.22 1031.06 1030.38 1030.38 1029.94 1029.50 1029.42 1028.90 1028.78 1028.46 1027.86 1027.66 1027.50 1027.18 1026.90 1026.58 1026.26 1025.86 1025.58 1025.22 1024.98 1024.74 1024.50 1024.30 1024.06 1023.82 1023.62 1023.54 1023.30 1023.10 1022.82 1022.54 1022.30 1022.02 1021.58 1021.22 1020.70 1020.14 1019.66 1019.18 1018.14 1017.30 1016.06 1015.82 1015.06 1014.26 1013.98 1013.86 1013.26 1013.02 1012.74 1012.58 1012.26 1012.30 1012.38 1012.34 1012.42 1012.34 1012.10 1011.78 1011.74 1011.74
1031.38 1031.22 1030.78 1030.54 1030.14 1029.82 1029.54 1029.02 1028.94 1028.50 1028.22 1028.02 1027.78 1027.50 1027.06 1026.74 1026.42 1026.06 1025.66 1025.34 1025.02 1024.74 1024.50 1024.22 1023.98 1023.70 1023.62 1023.50 1023.30 1023.10 1022.86 1022.66 1022.50 1022.22 1021.86 1021.50 1021.02 1020.62 1020.14 1019.78 1019.42 1018.90 1017.94 1017.22 1016.26 1015.74 1014.42 1013.82 1013.66 1013.10 1012.58 1012.54 1012.26 1012.10 1011.74 1011.86 1011.78 1011.90 1011.94 1011.78 1011.58 1011.26 1011.22
1031.38 1030.82 1030.70 1030.30 1029.90 1029.70 1029.26 1028.98 1028.66 1028.30 1028.14 1027.86 1027.50 1027.18 1026.78 1026.46 1026.18 1025.86 1025.50 1025.22 1024.90 1024.62 1024.38 1024.14 1023.90 1023.54 1023.42 1023.26 1023.02 1022.78 1022.58 1022.30 1022.10 1021.82 1021.46 1021.10 1020.78 1020.42 1020.02 1019.66 1019.30 1018.82 1018.26 1017.50 1016.98 1015.94 1015.22 1013.74 1013.62 1012.90 1012.46 1012.34 1012.18 1011.74 1011.50 1011.38 1011.38 1011.42 1011.42 1011.38 1011.30 1011.06 1010.90
1031.14 1030.94 1030.54 1030.22 1029.86 1029.46 1029.18 1028.78 1028.46 1028.18 1027.86 1027.54 1027.22 1026.86 1026.46 1026.14 1025.86 1025.54 1025.22 1024.90 1024.58 1024.34 1024.14 1023.82 1023.54 1023.22 1023.10 1022.90 1022.62 1022.22 1021.98 1021.66 1021.54 1021.34 1021.06 1020.78 1020.42 1020.06 1019.66 1019.30 1018.98 1018.50 1018.10 1017.58 1017.02 1016.26 1015.50 1014.70 1013.70 1012.94 1012.22 1012.10 1011.94 1011.42 1011.10 1011.06 1010.86 1010.90 1010.94 1010.94 1010.86 1010.78 1010.50
1031.18 1030.86 1030.50 1030.10 1029.74 1029.38 1028.98 1028.66 1028.30 1027.98 1027.62 1027.26 1026.94 1026.54 1026.18 1025.82 1025.50 1025.10 1024.78 1024.46 1024.18 1023.94 1023.66 1023.34 1022.98 1022.74 1022.58 1022.34 1022.06 1021.54 1021.26 1021.06 1020.90 1020.74 1020.50 1020.30 1020.02 1019.74 1019.42 1019.06 1018.74 1018.38 1017.98 1017.58 1016.86 1016.46 1015.74 1015.02 1014.02 1013.18 1012.14 1011.70 1011.66 1011.34 1010.86 1010.58 1010.38 1010.34 1010.42 1010.66 1010.46 1010.22 1010.18
1031.10 1030.74 1030.38 1029.98 1029.62 1029.26 1028.86 1028.50 1028.10 1027.74 1027.34 1026.98 1026.66 1026.26 1025.90 1025.50 1025.10 1024.70 1024.38 1023.94 1023.62 1023.30 1022.94 1022.62 1022.30 1022.02 1021.82 1021.54 1021.22 1020.94 1020.62 1020.42 1020.22 1020.06 1019.78 1019.58 1019.38 1019.22 1019.06 1018.70 1018.26 1017.94 1017.62 1017.14 1016.62 1015.94 1015.50 1014.78 1013.90 1013.26 1012.18 1011.38 1011.18 1010.94 1010.50 1010.22 1010.02 1009.58 1009.70 1010.10 1010.18 1009.94 1009.70
1030.94 1030.54 1030.26 1029.86 1029.46 1029.06 1028.70 1028.26 1027.86 1027.46 1027.06 1026.66 1026.26 1025.90 1025.58 1025.14 1024.70 1024.22 1023.74 1023.22 1022.78 1022.42 1022.02 1021.62 1021.30 1020.98 1020.70 1020.50 1020.18 1019.98 1019.66 1019.58 1019.38 1019.06 1018.82 1018.50 1018.46 1018.30 1018.22 1017.94 1017.58 1017.30 1016.94 1016.50 1016.06 1015.50 1015.02 1014.42 1013.74 1012.86 1011.94 1011.30 1010.90 1010.54 1009.94 1009.58 1009.58 1009.26 1009.06 1009.30 1009.46 1009.54 1009.46
1030.82 1030.46 1030.10 1029.70 1029.30 1028.86 1028.50 1028.14 1027.58 1027.14 1026.70 1026.30 1025.78 1025.46 1024.94 1024.38 1023.86 1023.30 1022.74 1022.14 1021.62 1021.14 1020.74 1020.38 1020.06 1019.74 1019.46 1019.22 1018.94 1018.66 1018.38 1018.14 1018.06 1018.06 1017.78 1017.38 1017.46 1017.42 1017.22 1016.94 1016.62 1016.34 1016.02 1015.58 1015.22 1014.66 1014.26 1013.78 1013.06 1012.30 1011.70 1010.86 1010.26 1009.82 1009.38 1009.18 1009.02 1008.82 1008.62 1008.70 1008.78 1008.66 1008.98
1030.66 1030.34 1029.90 1029.46 1028.98 1028.62 1028.22 1027.78 1027.26 1026.70 1026.18 1025.38 1024.86 1024.34 1023.62 1022.94 1022.38 1021.94 1021.50 1021.02 1020.46 1019.94 1019.50 1019.06 1018.70 1018.30 1017.98 1017.78 1017.58 1017.30 1017.06 1016.86 1016.70 1016.62 1016.58 1016.34 1016.34 1016.30 1016.10 1015.86 1015.66 1015.42 1015.14 1014.82 1014.38 1013.90 1013.66 1013.26 1012.46 1011.70 1011.10 1010.42 1009.70 1009.26 1008.90 1008.70 1008.54 1008.38 1008.14 1008.22 1008.34 1008.26 1007.94
1030.30 1029.98 1029.62 1029.18 1028.66 1028.18 1027.86 1027.42 1026.82 1026.10 1025.02 1024.34 1023.70 1023.30 1022.86 1022.42 1021.62 1020.94 1020.30 1019.70 1019.22 1018.62 1018.18 1017.74 1017.38 1017.06 1016.78 1016.54 1016.34 1016.10 1015.78 1015.50 1015.26 1015.14 1015.02 1014.86 1014.90 1015.02 1015.02 1014.90 1014.66 1014.34 1014.18 1013.94 1013.42 1012.98 1012.90 1012.46 1011.78 1011.10 1010.70 1009.94 1009.38 1009.06 1008.62 1008.22 1008.14 1007.94 1007.90 1007.70 1008.10 1008.02 1007.66
1029.94 1029.54 1029.14 1028.70 1028.22 1027.82 1027.34 1026.82 1026.18 1025.34 1024.18 1023.38 1022.78 1022.22 1021.78 1021.30 1020.66 1020.02 1019.42 1018.86 1018.42 1017.94 1017.50 1017.02 1016.58 1016.18 1015.78 1015.46 1015.22 1014.94 1014.66 1014.38 1014.18 1013.98 1013.78 1013.66 1013.50 1013.38 1013.26 1013.06 1012.94 1012.78 1012.70 1012.62 1012.46 1012.02 1011.78 1011.66 1011.06 1010.82 1010.46 1009.90 1009.38 1008.70 1008.34 1007.74 1007.62 1007.38 1007.42 1007.30 1007.26 1007.54 1007.38
1029.50 1029.10 1028.74 1028.38 1027.78 1027.22 1026.82 1026.26 1025.50 1024.66 1023.50 1022.78 1021.90 1021.10 1020.66 1020.42 1019.86 1019.30 1018.70 1018.22 1017.74 1017.22 1016.78 1016.30 1015.78 1015.30 1014.82 1014.42 1014.10 1013.82 1013.54 1013.30 1012.98 1012.74 1012.62 1012.50 1012.38 1012.22 1012.02 1011.66 1011.34 1011.14 1011.02 1011.14 1011.06 1010.86 1010.54 1010.58 1010.54 1010.46 1010.06 1009.98 1009.62 1009.14 1008.34 1007.70 1007.14 1006.90 1006.86 1006.78 1006.86 1006.86 1007.02
1029.14 1028.66 1028.26 1027.90 1027.42 1026.78 1026.22 1025.74 1024.98 1023.86 1022.70 1022.06 1021.14 1020.30 1019.90 1019.74 1019.22 1018.66 1018.02 1017.50 1016.98 1016.50 1015.98 1015.46 1014.94 1014.38 1013.82 1013.34 1013.02 1012.66 1012.26 1011.86 1011.66 1011.42 1011.30 1011.30 1011.22 1011.10 1010.94 1010.78 1010.50 1010.14 1009.94 1009.94 1009.78 1009.66 1009.30 1009.42 1009.90 1009.46 1009.30 1009.42 1009.70 1009.54 1008.74 1007.90 1006.86 1006.46 1006.50 1006.50 1006.26 1006.62 1006.50
1028.62 1028.18 1027.82 1027.38 1026.90 1026.30 1025.58 1025.10 1024.22 1022.98 1021.94 1021.18 1020.38 1019.74 1019.34 1018.98 1018.62 1018.02 1017.30 1016.66 1016.10 1015.58 1015.02 1014.50 1013.98 1013.46 1012.82 1012.22 1011.82 1011.30 1011.02 1010.62 1010.22 1009.94 1009.86 1009.86 1009.82 1009.78 1009.66 1009.70 1009.70 1009.62 1009.46 1009.18 1008.90 1008.62 1008.42 1008.54 1008.82 1008.74 1008.58 1008.78 1008.98 1008.82 1008.42 1007.82 1007.38 1006.86 1006.46 1006.18 1006.10 1006.10 1006.26
1028.30 1027.78 1027.30 1026.90 1026.46 1025.90 1025.10 1024.38 1023.50 1022.38 1021.42 1020.62 1019.78 1019.06 1018.98 1018.70 1018.14 1017.34 1016.54 1015.78 1015.10 1014.50 1013.90 1013.30 1012.70 1012.14 1011.50 1010.94 1010.42 1009.86 1009.38 1009.06 1008.86 1008.74 1008.62 1008.50 1008.42 1008.42 1008.34 1008.34 1008.22 1008.14 1008.14 1007.98 1007.86 1007.78 1007.66 1007.66 1007.78 1007.86 1007.86 1007.94 1008.02 1007.94 1007.90 1007.90 1007.46 1007.10 1006.58 1006.10 1005.90 1005.90 1005.90
1027.90 1027.42 1026.90 1026.38 1026.02 1025.50 1024.66 1023.82 1022.94 1021.94 1020.86 1019.86 1018.98 1018.66 1018.46 1018.06 1017.26 1016.42 1015.70 1014.90 1014.14 1013.42 1012.70 1012.10 1011.50 1010.98 1010.18 1009.34 1008.74 1008.22 1007.70 1007.26 1007.02 1006.90 1006.94 1007.06 1007.22 1007.18 1007.14 1006.98 1007.02 1006.98 1006.82 1006.54 1006.30 1006.14 1006.18 1006.10 1006.18 1006.34 1006.38 1006.38 1006.54 1006.74 1007.10 1007.26 1007.06 1006.42 1006.18 1005.54 1005.26 1005.26 1005.26
1027.42 1026.94 1026.50 1026.02 1025.46 1025.06 1024.26 1023.18 1022.30 1021.30 1020.34 1019.34 1018.42 1018.22 1017.98 1017.30 1016.58 1015.70 1014.82 1013.90 1013.14 1012.42 1011.58 1010.74 1010.02 1009.42 1008.82 1008.18 1007.42 1006.70 1006.22 1005.58 1005.22 1005.30 1005.34 1005.46 1005.78 1006.02 1006.10 1005.86 1005.90 1006.10 1006.02 1005.78 1005.42 1005.26 1005.06 1005.02 1004.98 1004.86 1004.90 1004.90 1004.94 1005.14 1005.66 1006.14 1005.94 1005.46 1005.50 1004.94 1004.54 1004.54 1004.54
1027.06 1026.54 1026.06 1025.54 1024.98 1024.26 1023.70 1022.74 1021.70 1020.66 1019.62 1018.54 1017.86 1017.46 1017.26 1016.54 1015.78 1014.98 1014.10 1013.26 1012.22 1011.26 1010.46 1009.50 1008.70 1007.98 1007.26 1006.58 1005.74 1005.06 1004.50 1003.94 1004.02 1004.06 1004.02 1004.14 1004.26 1004.50 1004.78 1004.70 1004.70 1004.86 1005.10 1005.14 1005.10 1004.78 1004.62 1004.38 1004.30 1004.34 1004.42 1004.26 1004.22 1004.14 1004.22 1004.58 1004.82 1005.02 1004.66 1004.26 1003.74 1003.78 1004.18
1026.74 1026.26 1025.50 1024.86 1024.26 1023.54 1022.90 1022.18 1021.10 1020.22 1018.94 1018.10 1017.54 1016.70 1016.34 1015.90 1015.26 1014.42 1013.38 1012.42 1011.42 1010.34 1009.22 1008.46 1007.70 1006.82 1005.98 1005.10 1004.22 1003.86 1003.42 1002.98 1002.70 1002.46 1002.54 1003.02 1003.34 1003.50 1003.70 1003.10 1003.30 1003.70 1003.90 1003.90 1003.90 1003.78 1003.70 1003.62 1003.58 1003.54 1003.58 1003.54 1003.50 1003.42 1003.54 1003.62 1003.58 1003.78 1003.82 1003.46 1003.02 1002.94 1003.14
1026.46 1025.82 1024.94 1024.14 1023.46 1022.74 1022.02 1021.50 1020.66 1019.54 1018.58 1017.70 1016.94 1016.18 1015.74 1015.46 1014.74 1013.78 1012.86 1011.86 1010.70 1009.66 1008.90 1008.22 1007.42 1006.42 1005.42 1004.58 1003.90 1003.34 1002.78 1002.18 1001.78 1001.46 1001.46 1001.86 1002.30 1002.34 1001.74 1001.70 1002.58 1002.34 1002.62 1002.82 1002.82 1002.86 1002.86 1002.70 1002.62 1002.58 1002.50 1002.50 1002.46 1002.42 1002.42 1002.42 1002.54 1002.62 1002.66 1002.82 1002.54 1002.54 1002.74
1025.94 1025.18 1024.26 1023.42 1022.66 1021.90 1021.18 1020.58 1020.22 1019.42 1018.30 1017.30 1016.42 1015.78 1015.18 1014.74 1013.90 1013.14 1012.30 1011.14 1010.30 1009.58 1008.86 1008.06 1007.18 1006.14 1005.06 1004.22 1003.38 1002.66 1002.06 1001.54 1001.14 1000.82 1000.78 1000.66 1000.78 1000.74 1000.54 1000.86 1001.02 1001.26 1001.54 1001.74 1001.82 1001.86 1001.78 1001.66 1001.58 1001.46 1001.34 1001.26 1001.30 1001.26 1001.26 1001.22 1001.26 1001.42 1001.74 1001.94 1001.90 1002.14 1002.30
1025.26 1024.50 1023.54 1022.74 1021.90 1021.18 1020.62 1020.10 1019.46 1018.86 1017.98 1017.06 1016.30 1015.46 1014.74 1014.10 1013.42 1012.22 1011.42 1010.94 1010.18 1009.42 1008.66 1007.78 1007.02 1006.02 1004.90 1003.82 1002.70 1001.82 1001.26 1000.82 1000.54 1000.38 1000.38 999.98 999.66 999.58 999.54 999.78 1000.10 1000.22 1000.38 1000.50 1000.58 1000.62 1000.62 1000.54 1000.46 1000.38 1000.30 1000.22 1000.26 1000.22 1000.18 1000.18 1000.22 1000.50 1000.86 1001.30 1001.62 1001.66 1001.78
1024.62 1023.86 1022.98 1022.06 1021.26 1020.74 1020.18 1019.54 1018.94 1018.34 1017.74 1016.98 1016.26 1015.26 1014.42 1013.70 1012.62 1011.62 1011.22 1010.66 1009.90 1009.30 1008.66 1007.82 1006.94 1005.82 1004.54 1003.14 1002.06 1001.42 1000.82 1000.42 1000.22 999.98 999.62 999.14 999.02 999.10 999.02 998.82 998.78 998.94 999.06 999.18 999.34 999.50 999.46 999.46 999.38 999.42 999.42 999.46 999.42 999.30 999.34 999.50 999.58 999.74 1000.18 1000.70 1001.10 1001.30 1001.54
1024.22 1023.42 1022.50 1021.78 1021.06 1020.26 1019.62 1019.14 1018.62 1018.10 1017.42 1016.78 1016.10 1015.22 1014.30 1013.22 1012.22 1011.54 1011.06 1010.10 1009.54 1009.42 1008.70 1007.78 1006.58 1005.50 1004.46 1003.50 1002.46 1001.54 1000.74 1000.26 999.98 999.62 999.22 998.90 998.46 998.14 997.90 997.62 997.46 997.46 997.54 997.82 998.14 998.30 998.38 998.34 998.30 998.42 998.58 998.78 998.90 998.86 998.94 999.06 999.26 999.34 999.62 1000.10 1000.62 1000.90 1001.10
1023.78 1022.94 1022.30 1021.66 1020.86 1020.02 1019.30 1018.86 1018.42 1017.86 1017.18 1016.46 1015.82 1015.14 1014.22 1013.18 1012.06 1011.34 1010.58 1010.02 1009.70 1009.18 1008.42 1007.58 1006.74 1005.90 1005.02 1004.14 1003.30 1002.34 1001.38 1000.66 1000.10 999.62 999.10 998.66 998.30 997.94 997.42 996.90 996.46 996.22 996.34 996.54 996.82 997.14 997.38 997.38 997.46 997.70 997.94 998.34 998.54 998.58 998.54 998.54 998.70 998.94 999.34 999.78 1000.14 1000.50 1000.78
1023.38 1022.74 1022.18 1021.46 1020.54 1019.78 1019.18 1018.74 1018.30 1017.66 1016.94 1016.34 1015.78 1014.94 1013.86 1012.66 1011.66 1011.02 1010.22 1009.74 1009.54 1009.02 1008.38 1007.70 1006.98 1006.22 1005.46 1004.74 1003.90 1002.90 1002.02 1001.30 1000.58 999.82 999.14 998.62 998.30 997.86 997.38 996.78 996.06 995.50 995.34 995.42 995.94 996.34 996.62 996.78 996.98 997.34 997.78 998.10 998.30 998.30 998.18 998.22 998.42 998.70 999.06 999.42 999.74 1000.18 1000.54
1023.26 1022.70 1022.10 1021.18 1020.22 1019.66 1019.30 1018.82 1018.26 1017.62 1016.94 1016.30 1015.70 1014.78 1013.62 1012.54 1011.78 1010.98 1010.22 1009.90 1009.66 1009.26 1008.66 1007.94 1007.06 1006.26 1005.62 1004.90 1004.02 1003.14 1002.54 1002.02 1001.42 1000.78 999.98 999.34 998.62 997.78 997.26 996.82 996.26 995.90 995.74 995.74 995.86 996.18 996.50 996.82 997.18 997.54 997.74 997.90 998.10 998.18 998.14 998.06 998.22 998.46 998.86 999.18 999.54 999.98 1000.22
1023.22 1022.62 1021.94 1021.14 1020.42 1019.98 1019.38 1018.82 1018.10 1017.50 1017.18 1016.62 1015.78 1014.78 1013.54 1012.62 1012.14 1011.22 1010.42 1010.38 1010.10 1009.42 1008.78 1008.10 1007.26 1006.62 1006.06 1005.54 1004.90 1004.18 1003.58 1002.94 1002.26 1001.50 1000.86 1000.18 999.26 998.34 997.38 996.74 996.34 996.10 995.94 995.94 996.10 996.42 996.78 997.18 997.46 997.70 997.82 997.86 997.94 997.98 997.98 997.98 998.02 998.22 998.50 998.98 999.30 999.58 999.74
1022.94 1022.22 1021.66 1021.02 1020.74 1020.54 1019.74 1018.70 1018.02 1017.58 1016.90 1016.06 1015.26 1014.30 1013.50 1012.86 1012.14 1011.34 1010.78 1010.54 1010.34 1009.98 1009.26 1008.50 1007.86 1007.34 1006.86 1006.30 1005.66 1005.06 1004.50 1003.86 1003.26 1002.50 1001.66 1000.82 999.98 998.98 997.70 996.90 996.66 996.34 996.18 996.26 996.30 996.54 996.82 997.14 997.42 997.66 997.82 997.86 997.82 997.82 997.94 997.90 997.86 997.98 998.22 998.70 999.02 999.22 999.38
1022.10 1021.58 1021.46 1021.34 1020.58 1019.94 1019.46 1018.86 1018.34 1017.66 1016.74 1015.74 1014.82 1014.02 1013.26 1012.66 1011.90 1011.42 1010.94 1010.90 1010.58 1010.06 1009.58 1008.94 1008.38 1007.90 1007.42 1006.98 1006.42 1005.86 1005.34 1004.74 1004.10 1003.42 1002.70 1001.82 1000.86 999.78 998.38 997.18 996.78 996.78 996.82 996.70 996.58 996.70 996.82 997.10 997.30 997.46 997.58 997.70 997.78 997.82 997.90 997.90 997.82 997.78 997.94 998.30 998.66 998.90 999.06
1021.90 1021.54 1020.94 1020.62 1020.34 1019.78 1019.30 1018.78 1018.18 1017.54 1016.50 1015.70 1014.74 1013.86 1013.06 1012.58 1012.22 1011.78 1011.42 1011.30 1011.22 1010.62 1010.02 1009.58 1009.02 1008.42 1007.94 1007.46 1006.86 1006.38 1005.94 1005.38 1004.82 1004.18 1003.50 1002.62 1001.66 1000.54 999.46 998.30 997.18 996.94 996.98 996.94 996.86 996.82 996.86 997.02 997.18 997.30 997.46 997.58 997.70 997.82 997.86 997.86 997.82 997.74 997.74 997.94 998.18 998.42 998.70
1021.82 1021.42 1021.02 1020.58 1019.98 1019.42 1019.02 1018.58 1018.02 1017.26 1016.34 1015.46 1014.58 1013.62 1013.22 1013.10 1012.78 1012.38 1011.86 1011.58 1011.30 1010.94 1010.38 1009.94 1009.46 1008.98 1008.46 1007.94 1007.38 1006.90 1006.42 1005.90 1005.38 1004.78 1004.02 1003.34 1002.46 1001.42 1000.26 999.34 998.34 997.46 997.06 996.86 996.86 996.86 996.86 996.94 997.10 997.22 997.38 997.46 997.58 997.74 997.82 997.82 997.82 997.70 997.58 997.62 997.86 998.18 998.46
1022.02 1021.66 1021.26 1020.90 1020.42 1019.62 1018.90 1018.42 1017.78 1017.06 1016.42 1015.42 1014.38 1013.78 1013.66 1013.58 1013.22 1012.82 1012.42 1012.10 1011.74 1011.22 1010.66 1010.26 1009.82 1009.34 1008.86 1008.30 1007.82 1007.30 1006.82 1006.30 1005.74 1005.14 1004.50 1003.70 1002.90 1001.98 1000.86 999.70 998.58 997.58 996.98 996.74 996.74 996.74 996.74 996.86 996.94 997.06 997.18 997.26 997.34 997.46 997.54 997.62 997.66 997.66 997.58 997.42 997.54 997.82 998.18
1021.18 1021.18 1021.38 1020.98 1020.38 1019.86 1019.42 1018.90 1018.18 1017.42 1016.66 1015.58 1014.62 1014.14 1014.18 1014.06 1013.46 1012.78 1012.38 1012.02 1011.82 1011.46 1011.10 1010.66 1010.18 1009.70 1009.18 1008.70 1008.10 1007.62 1007.18 1006.62 1006.06 1005.50 1004.86 1004.22 1003.34 1002.38 1001.42 1000.30 999.02 997.70 996.98 996.78 996.58 996.58 996.62 996.70 996.82 996.90 996.98 996.98 997.10 997.22 997.34 997.34 997.42 997.42 997.34 997.26 997.26 997.50 997.82
1021.66 1021.26 1020.86 1020.66 1020.34 1020.06 1019.58 1018.94 1018.22 1017.54 1016.54 1015.38 1014.78 1014.46 1014.70 1014.30 1013.78 1013.42 1013.10 1012.66 1012.30 1011.94 1011.50 1011.10 1010.58 1010.10 1009.54 1009.02 1008.50 1008.02 1007.50 1007.02 1006.46 1005.90 1005.38 1004.70 1003.98 1003.10 1002.14 1001.26 1000.30 999.46 998.22 996.86 996.62 996.46 996.38 996.54 996.62 996.62 996.66 996.74 996.78 996.90 997.02 997.06 997.14 997.18 997.10 997.06 997.10 997.14 997.42
Wind_Speed
14 15 15 16 15 15 15 14 14 13 13 13 14 13 13 14 13 14 13 12 14 13 12 12 13 14 14 13 13 12 10 10 10 11 10 10 10 11 11 11 13 16 19 17 14 16 15 16 16 18 17 18 16 14 12 14 16 17 14 12 11 11 15
15 15 16 17 16 16 17 16 17 16 14 17 17 15 12 12 14 14 14 13 14 13 11 12 14 15 14 14 14 13 13 12 12 11 11 11 11 11 11 11 12 14 15 18 13 16 17 17 17 17 17 17 17 17 14 15 14 15 16 13 12 11 11
16 16 17 17 17 17 16 18 16 16 17 17 17 17 16 16 16 17 16 16 16 15 13 15 15 15 15 12 13 13 13 13 13 12 12 13 11 12 13 13 12 12 15 16 15 14 18 16 15 17 17 17 17 18 18 18 18 16 14 15 14 12 11
16 17 17 17 18 17 17 17 17 17 16 16 16 16 17 17 16 16 17 16 16 16 15 15 15 14 13 13 14 14 13 12 12 12 12 13 13 13 15 14 13 15 14 13 14 13 16 17 15 16 17 16 16 18 18 16 16 16 16 17 15 14 13
16 16 17 16 17 18 18 18 18 17 17 16 16 17 17 17 16 16 17 17 17 17 16 16 16 16 15 14 15 14 13 12 14 13 13 13 12 12 13 12 13 14 14 14 14 14 14 16 17 16 17 16 16 16 17 18 19 16 17 16 16 14 12
15 15 17 17 17 17 17 17 17 17 17 17 17 17 17 17 17 17 17 17 17 17 16 16 16 16 15 15 15 15 15 14 15 14 14 15 14 13 13 14 14 14 15 15 16 15 15 14 17 17 17 17 16 17 17 15 16 14 14 16 17 17 12
17 16 16 17 17 17 17 17 17 17 17 17 17 17 18 18 17 18 17 16 17 17 17 17 17 17 16 17 17 18 17 16 17 15 16 16 16 15 15 15 15 15 15 16 15 14 14 15 14 16 18 17 17 18 18 17 17 16 12 15 15 16 13
16 16 15 16 16 17 16 16 17 17 18 17 17 16 17 17 18 18 18 19 18 18 18 18 19 19 19 18 18 18 18 17 16 15 15 15 14 14 15 15 15 15 15 15 15 14 13 13 14 15 17 18 17 17 18 18 17 20 16 15 15 14 15
16 16 17 17 17 17 16 16 16 14 14 15 17 16 17 19 19 19 18 18 18 17 18 18 18 18 18 21 26 28 26 23 20 16 16 16 15 15 15 15 15 15 15 15 14 15 14 14 14 14 15 17 17 18 18 17 17 18 18 14 15 14 13
16 15 16 16 16 16 15 15 14 18 27 25 19 19 17 15 14 15 15 16 16 17 18 18 18 18 28 30 31 31 33 33 33 33 24 17 15 17 18 17 16 16 16 15 16 16 15 15 15 15 16 17 18 17 17 19 19 19 17 12 15 17 14
15 15 14 15 16 17 15 15 15 26 28 21 31 25 20 19 19 20 20 20 19 18 18 17 18 17 20 24 26 25 32 33 34 33 34 37 34 25 18 16 17 17 17 17 17 16 16 16 17 17 16 17 17 18 18 16 18 18 17 16 14 17 14
15 15 15 14 15 16 16 16 22 27 29 22 32 32 21 17 17 17 17 17 18 17 16 18 18 18 18 18 20 20 20 26 33 34 35 36 35 36 38 34 23 17 16 17 17 17 18 17 17 16 14 14 15 16 16 17 18 17 17 17 14 15 14
15 15 15 15 17 17 16 16 22 28 27 23 29 31 24 17 16 16 16 16 17 18 18 17 17 18 18 17 28 24 21 19 20 29 36 37 38 40 40 38 39 37 27 22 21 21 22 20 18 18 18 16 16 14 16 16 17 15 16 17 15 17 14
16 15 15 15 15 17 17 16 21 30 25 28 32 27 21 17 18 17 17 17 17 17 18 18 18 17 18 19 20 20 22 21 20 18 18 21 24 23 30 36 40 40 41 35 25 21 24 21 19 20 17 16 15 16 17 16 18 17 17 17 16 15 16
14 14 15 15 15 16 17 15 25 29 29 32 33 31 25 17 16 15 16 16 17 18 19 19 19 20 21 20 21 19 24 23 21 20 19 20 20 22 22 23 22 23 21 20 20 22 22 21 21 20 22 20 17 18 18 17 17 16 17 15 13 15 13
13 15 16 16 16 16 17 16 25 29 22 31 26 29 20 15 16 16 16 17 18 18 18 18 19 19 20 21 20 26 36 33 25 20 20 22 21 22 20 20 25 29 29 24 20 19 18 19 20 25 22 22 20 18 18 18 20 17 16 16 16 16 13
14 14 15 16 15 16 17 17 23 26 25 29 36 26 17 16 15 15 17 17 18 18 19 19 21 20 20 21 20 28 35 36 35 26 22 18 19 20 19 20 20 28 35 36 38 37 36 36 35 36 38 38 40 30 22 16 17 18 16 17 16 15 16
14 14 14 15 16 15 17 18 22 26 21 31 34 26 19 15 14 15 16 17 18 17 18 22 33 30 24 23 24 32 36 38 31 24 23 19 17 23 21 19 17 13 18 33 35 36 37 37 36 36 38 40 39 38 32 21 21 17 16 18 17 15 13
13 14 14 15 16 21 20 18 21 27 25 27 25 25 17 15 13 15 16 16 17 18 18 19 23 31 31 27 29 37 36 36 29 20 20 19 18 17 19 18 20 17 17 17 19 19 20 21 26 24 23 24 36 38 34 23 22 19 19 19 18 16 15
14 16 16 16 16 15 15 16 17 20 30 24 30 25 20 14 14 15 17 17 17 18 18 18 18 23 29 31 32 29 29 27 28 20 13 13 15 15 19 19 19 18 18 18 18 17 17 18 16 15 16 16 18 20 22 22 18 20 19 18 17 16 15
15 15 15 15 15 15 15 14 17 21 28 23 24 28 22 15 16 16 16 16 18 16 15 16 17 16 23 28 26 25 28 29 27 23 13 11 14 16 21 20 13 19 26 18 17 17 17 16 15 15 15 15 16 16 17 17 20 21 18 19 15 15 16
14 14 15 15 15 14 15 16 20 19 25 29 26 24 25 18 17 21 16 16 15 16 15 16 16 15 22 29 29 28 27 26 24 23 13 11 19 27 31 22 18 15 14 15 15 15 15 16 16 16 15 15 15 15 16 17 17 18 18 17 16 17 14
14 13 14 14 13 13 14 15 15 20 20 27 30 28 23 29 25 29 18 15 16 16 16 16 16 18 28 33 32 27 23 20 21 17 12 21 23 24 27 24 17 16 16 15 15 15 15 15 15 15 15 14 13 14 15 14 16 16 14 14 16 14 12
13 13 13 14 14 13 13 14 13 17 24 24 29 29 29 29 33 31 19 18 14 14 16 15 16 20 31 30 27 24 21 19 17 13 19 22 22 21 22 16 15 13 16 16 16 15 15 14 14 13 12 12 12 12 12 13 12 14 17 14 10 14 15
12 13 13 14 14 15 15 13 14 15 19 26 25 28 27 30 32 28 28 18 14 14 14 21 29 29 28 29 27 26 19 14 15 19 19 18 18 17 10 12 13 14 14 14 15 14 14 14 13 12 11 10 10 10 8 9 10 11 11 11 12 12 11
12 13 13 14 15 16 16 15 14 14 14 16 18 20 27 32 27 25 27 21 14 21 26 26 25 27 25 22 20 15 11 10 10 17 17 16 16 11 11 11 12 12 13 14 16 16 15 13 12 10 10 10 10 9 9 9 9 10 9 8 10 8 8
13 13 13 15 15 15 15 14 13 13 14 14 15 16 18 18 16 20 20 14 13 15 15 17 17 16 20 18 22 18 16 14 15 12 11 9 10 10 10 9 10 12 14 13 12 11 11 10 8 8 7 9 9 10 10 9 8 8 8 8 8 9 8
13 14 14 15 15 14 14 14 12 13 14 15 16 17 16 15 15 15 13 14 14 15 14 13 14 15 12 13 12 12 11 11 10 11 11 10 11 11 10 9 8 3 1 4 7 7 6 6 6 7 7 7 7 8 8 9 9 8 8 8 9 9 9
15 15 14 13 13 14 14 13 13 14 16 22 28 23 18 15 14 13 12 16 23 16 12 11 11 11 13 12 13 12 12 11 12 12 12 12 12 11 10 6 4 2 4 5 6 6 6 6 5 5 6 8 9 8 8 8 9 9 8 9 9 9 9
16 14 13 12 12 11 13 14 15 20 23 24 24 25 24 19 19 21 18 22 24 14 10 10 10 11 11 12 12 12 12 12 12 12 13 12 13 12 11 7 5 3 1 3 5 5 6 6 6 6 6 7 8 8 8 8 9 9 8 9 9 9 9
23 23 20 15 13 14 20 23 24 23 23 24 25 28 24 21 27 22 22 23 16 11 10 10 10 11 11 11 11 11 12 12 12 12 12 12 12 11 11 9 5 2 1 1 3 4 5 6 6 6 6 7 7 7 8 8 9 8 9 8 9 8 8
19 19 22 22 20 17 14 19 22 27 26 24 24 20 23 23 25 23 22 21 17 9 9 10 10 10 11 11 11 11 12 11 12 12 11 12 12 11 11 10 7 4 1 2 2 4 4 5 6 6 6 6 7 8 8 8 9 9 9 9 8 8 9
20 20 20 23 24 23 17 18 24 27 25 24 21 20 24 25 23 20 20 18 11 9 10 10 10 10 10 11 11 11 11 11 11 12 12 11 11 11 11 10 12 10 5 3 4 3 4 4 5 5 6 7 7 8 8 8 8 9 9 9 9 9 9
13 17 21 21 23 24 25 26 25 24 25 25 23 24 24 23 15 16 16 14 9 10 10 10 10 10 11 11 11 11 12 12 12 11 11 11 11 11 11 12 12 8 5 4 4 4 5 5 5 6 6 6 7 8 8 8 9 9 9 10 10 9 10
15 16 19 17 18 20 24 25 25 26 26 25 22 21 23 18 12 12 12 11 10 10 10 11 10 11 11 11 11 11 12 12 12 11 11 12 12 12 11 11 11 9 6 5 4 5 5 5 5 5 6 6 7 7 8 8 9 9 10 11 10 10 10
13 14 17 21 18 18 21 23 24 24 25 22 21 19 19 12 12 11 11 10 10 10 10 10 10 10 11 11 11 11 11 11 11 11 11 11 11 12 12 11 10 11 10 7 6 6 6 5 5 6 6 7 7 9 8 8 8 9 10 11 10 9 9
Wind_Direction
306 305 305 304 304 302 300 299 297 297 294 292 290 286 284 284 281 278 278 278 278 274 272 271 270 273 273 273 272 273 274 271 272 273 272 270 270 268 266 263 264 265 270 269 265 273 272 272 270 269 264 267 265 256 253 249 252 255 246 242 244 248 240
308 306 305 307 302 301 301 298 299 297 295 296 293 286 284 282 281 279 278 277 276 275 271 272 276 275 275 273 269 267 266 267 272 270 269 268 268 268 268 265 268 268 270 273 267 264 269 268 267 270 265 265 264 261 253 253 249 251 253 249 245 247 248
307 305 306 301 300 299 297 299 296 297 296 291 288 283 284 283 284 283 281 280 277 276 276 277 276 275 276 271 266 264 263 264 265 265 264 264 261 263 265 266 266 273 273 276 274 270 270 267 264 264 268 263 262 262 262 257 253 249 252 254 249 244 248
305 307 303 301 299 297 297 296 295 295 290 286 282 282 280 279 276 276 275 272 273 273 273 270 270 269 268 267 266 264 263 261 260 259 261 263 261 261 263 264 264 262 269 275 278 267 266 271 266 263 264 264 266 263 260 254 253 251 249 253 249 242 244
306 303 302 300 298 298 296 295 296 292 288 285 283 281 280 276 274 273 272 270 270 270 268 267 266 267 267 265 264 263 260 258 255 255 258 258 260 260 263 265 262 265 263 267 267 270 265 271 272 268 266 263 263 261 257 252 252 250 250 247 247 246 240
302 301 297 295 294 293 292 291 290 288 285 284 283 281 279 277 274 272 270 270 269 267 265 263 263 261 260 258 256 257 259 258 256 254 253 255 256 259 262 264 265 263 265 264 264 266 272 263 263 262 261 259 255 256 257 256 250 243 244 248 248 245 239
300 299 296 294 293 291 290 291 288 285 283 282 281 279 276 275 273 272 272 269 266 263 261 259 257 256 251 250 250 252 252 252 251 250 250 248 250 250 254 258 260 262 261 261 263 263 259 264 260 258 259 256 255 254 254 253 252 246 233 241 243 249 244
296 296 295 294 293 291 290 288 286 284 282 281 277 276 275 272 272 271 268 266 262 260 256 254 253 251 249 246 246 246 248 245 246 247 245 245 244 244 245 251 256 258 257 259 261 260 261 257 259 253 251 254 254 252 249 243 246 249 243 244 244 242 244
294 294 293 292 290 290 289 287 284 282 280 280 277 270 267 264 261 259 259 257 256 253 250 249 250 246 245 246 243 243 243 240 236 238 244 244 239 240 241 245 250 254 255 257 258 261 260 262 259 254 248 245 242 241 243 247 243 246 244 243 248 242 234
292 288 288 289 290 288 287 284 281 279 278 275 273 276 272 268 259 252 247 247 249 252 250 247 244 243 243 243 242 246 248 250 250 246 243 245 242 242 243 242 243 246 250 254 257 258 260 259 256 252 246 243 243 246 246 245 243 246 244 236 243 250 240
289 288 286 286 286 287 286 284 281 281 282 280 281 282 283 281 281 279 278 275 274 274 273 269 265 262 255 251 251 252 252 250 250 251 250 249 245 240 236 235 234 235 238 246 249 254 253 253 256 254 253 250 245 243 244 247 242 243 243 238 234 241 241
286 285 287 286 285 283 283 283 283 285 288 286 289 290 284 280 279 276 276 277 274 272 269 269 266 262 260 257 253 251 247 249 251 252 252 251 249 247 244 239 233 233 236 237 243 249 247 250 252 257 254 252 249 248 246 244 241 240 240 236 232 236 244
289 288 288 286 286 284 286 284 286 289 289 288 289 290 291 291 289 288 283 279 277 273 270 268 266 265 261 258 257 254 248 246 247 249 249 250 250 250 250 252 250 246 245 246 247 248 249 244 250 251 248 248 255 259 258 251 244 235 235 236 236 241 240
288 289 287 286 286 287 286 285 286 291 291 291 293 293 295 294 294 288 282 278 273 269 267 264 263 264 264 261 257 256 251 246 244 241 242 245 245 244 248 249 251 254 255 253 249 247 248 244 241 247 249 245 244 252 260 261 254 239 233 231 236 237 238
294 290 286 286 286 286 288 283 288 294 297 298 298 297 301 303 299 291 283 278 272 268 264 259 258 258 259 258 256 252 251 247 241 237 239 237 233 238 241 242 242 244 245 248 249 251 252 251 246 245 247 245 243 243 252 263 272 267 247 242 237 240 237
289 290 290 289 288 288 287 286 290 297 295 297 297 300 305 302 294 287 282 279 275 270 267 261 255 253 252 251 249 250 255 255 251 244 236 234 238 239 238 240 240 238 237 237 236 241 244 245 243 244 246 247 246 243 243 257 262 269 260 244 241 240 231
294 291 290 290 289 288 287 287 290 294 296 298 300 301 302 299 294 290 283 278 277 275 272 269 264 258 255 250 244 248 253 257 257 251 237 224 228 234 237 242 240 241 242 240 238 235 235 236 237 240 243 243 241 240 240 242 250 250 252 246 234 231 235
294 292 291 291 290 286 286 287 288 292 291 296 297 300 302 299 292 287 287 284 281 278 274 269 265 261 258 258 260 263 260 260 254 246 244 231 220 223 231 236 236 234 242 250 253 253 250 246 245 243 241 242 241 240 236 232 235 241 246 245 237 233 231
295 295 293 289 287 286 286 283 285 289 294 295 299 304 305 300 297 294 288 287 286 284 278 276 277 271 269 263 262 257 258 258 257 249 240 232 223 219 223 232 234 231 237 238 244 252 257 261 257 254 252 252 252 248 242 234 232 236 240 242 237 231 234
295 294 292 290 286 283 277 280 283 282 291 296 304 307 308 308 300 295 295 294 292 288 293 296 296 290 287 284 283 282 283 281 277 269 240 220 224 227 235 235 232 234 233 235 235 239 241 244 245 245 245 245 246 249 249 245 235 230 234 236 236 229 227
291 290 288 289 287 284 281 278 284 290 295 300 303 307 311 310 302 300 299 295 298 304 304 301 296 297 299 298 294 289 287 285 281 279 264 211 218 225 230 231 227 231 228 229 231 234 238 240 242 241 240 239 238 238 239 238 238 231 228 231 235 230 233
289 290 290 294 292 286 287 291 293 296 298 302 306 308 309 309 310 307 302 310 312 306 305 300 300 300 299 298 293 289 287 286 284 281 276 254 226 224 234 235 229 229 225 225 229 232 234 237 239 241 237 234 234 233 233 236 231 225 220 225 232 233 229
288 289 292 294 298 301 301 301 301 303 303 303 308 310 307 308 308 315 323 321 311 309 306 306 304 301 298 294 293 295 296 294 293 292 277 266 257 252 248 244 237 230 229 227 227 229 231 234 236 237 240 235 233 234 229 225 223 216 206 220 228 224 219
298 299 298 302 306 308 308 307 305 306 305 305 308 310 311 311 317 324 328 317 311 315 309 309 306 302 308 316 319 315 309 306 304 298 285 281 280 271 262 254 247 234 234 230 225 228 230 230 232 235 231 235 235 235 227 224 216 206 208 209 214 222 224
300 299 303 305 308 309 311 313 311 309 306 306 308 311 314 317 320 323 321 317 322 318 311 310 312 319 326 326 326 329 332 329 316 306 306 310 311 304 272 254 243 237 224 221 225 224 227 229 226 220 225 225 228 228 222 222 219 209 196 191 196 206 204
301 304 307 309 309 310 311 315 314 310 308 309 313 312 313 313 319 323 320 326 326 323 320 319 320 320 325 327 325 326 329 328 326 322 323 323 324 314 300 280 253 233 226 214 212 217 217 219 220 214 213 213 216 217 217 216 210 205 189 175 191 189 193
305 307 308 310 310 311 314 314 314 312 311 315 316 316 311 317 325 325 326 333 334 332 325 318 319 322 323 322 322 330 336 339 334 329 324 325 322 313 303 304 281 244 220 204 198 200 205 214 214 219 215 210 209 215 216 206 192 183 180 175 181 186 188
305 306 306 307 313 315 314 312 313 314 315 315 317 314 316 327 331 330 333 339 340 334 324 321 323 330 337 334 338 342 346 343 337 330 331 329 322 322 317 302 276 261 197 191 185 175 179 182 184 192 202 203 207 214 216 202 190 180 171 173 172 184 189
301 299 303 310 316 318 312 311 311 314 311 312 315 318 325 336 335 331 337 347 344 333 327 329 336 343 344 349 345 346 343 341 339 334 330 327 326 323 319 318 311 235 181 162 156 150 149 153 161 182 193 218 222 212 211 203 191 182 171 170 177 183 180
292 298 310 317 320 313 306 308 313 314 315 316 317 321 330 337 336 341 344 350 344 335 329 337 342 344 344 344 347 347 347 342 339 334 330 328 325 320 316 337 345 347 157 152 158 159 168 170 177 180 189 207 222 219 209 207 203 185 170 166 176 181 179
311 318 328 326 318 314 315 316 316 318 315 317 321 324 336 344 345 343 348 354 347 342 344 344 343 341 343 345 345 348 344 341 335 334 329 324 320 315 318 329 342 352 6 186 167 164 167 169 179 185 189 197 205 216 213 210 207 200 186 178 179 181 179
318 322 326 331 327 326 323 320 323 323 322 322 322 324 343 347 345 343 347 351 348 343 347 345 342 340 342 343 343 343 341 340 337 333 330 325 320 318 317 318 322 344 214 225 200 174 170 178 184 190 187 195 200 204 208 211 212 208 199 189 188 189 184
319 323 329 330 329 328 325 328 327 326 327 327 322 335 351 347 343 340 346 350 352 352 343 346 343 341 339 341 340 339 338 336 337 334 331 329 321 315 313 309 311 315 293 241 217 199 192 189 196 196 196 196 197 199 207 208 210 213 208 198 192 194 193
314 324 329 327 327 327 331 332 331 331 330 327 332 342 351 348 336 336 346 355 348 345 345 342 341 340 340 337 336 336 335 334 332 334 333 331 327 318 313 308 301 290 276 260 224 222 213 209 207 204 202 201 200 201 204 205 206 208 212 204 195 191 193
321 325 328 324 323 324 327 328 328 329 328 324 332 345 355 344 345 346 348 352 353 347 342 339 336 338 339 340 337 335 333 329 328 332 334 333 331 329 324 326 323 308 281 263 251 227 225 212 210 212 211 210 206 202 204 205 206 207 209 207 196 191 189
311 313 317 319 319 322 326 326 328 329 326 331 338 346 357 349 349 343 343 340 341 340 337 334 333 335 335 336 337 338 336 332 329 330 330 331 330 330 331 330 330 333 323 283 250 249 232 219 218 220 219 215 218 210 206 205 206 208 209 205 198 187 189